Temperature
23 23 23 23 27 28 28 30 31 31 31 30 30 30 29 28 27 25 24 24 23 23 23 22 22 21 21 21 20 20 20 20 20 20 20 20 19 19 19 19 19 19 19 19 19 19 19 19 19
23 23 24 26 28 28 29 31 31 31 30 30 30 29 29 27 26 25 24 24 23 23 23 22 22 21 21 21 20 20 20 20 20 20 19 19 19 19 19 19 19 19 18 18 18 18 18 18 18
23 24 26 29 29 29 30 31 31 31 30 30 30 29 28 26 26 24 24 24 23 22 22 22 22 21 21 21 20 20 20 20 20 19 19 19 19 19 19 19 19 18 18 18 18 18 18 18 18
23 26 27 29 29 30 31 31 31 31 31 30 30 29 26 26 25 24 24 24 23 22 22 22 22 21 21 20 20 20 20 20 19 19 19 19 19 19 19 18 18 18 18 18 18 18 18 18 18
25 27 29 29 30 31 31 31 30 31 31 30 29 28 26 25 24 24 24 24 23 22 22 22 21 21 21 20 20 20 20 19 19 19 19 19 19 19 18 18 18 18 18 18 18 18 18 18 18
27 29 29 29 30 31 31 31 31 31 30 29 28 27 25 24 24 24 24 24 23 22 22 22 21 21 20 20 20 20 19 19 19 19 19 19 18 18 18 18 18 18 18 18 18 18 18 18 18
28 29 29 30 30 31 31 31 30 30 30 29 28 27 25 24 24 24 24 23 23 22 21 21 21 20 20 20 20 19 19 19 19 19 19 18 18 18 18 18 18 18 18 18 18 18 17 17 17
28 30 29 30 30 30 31 30 30 30 29 28 27 27 25 24 24 24 24 23 22 21 21 21 20 20 20 20 19 19 19 19 19 18 18 18 18 18 18 18 18 18 17 17 17 17 17 17 17
29 29 29 30 30 30 31 30 30 29 28 27 26 25 24 24 24 24 23 23 22 21 21 20 20 20 19 19 19 19 19 19 18 18 18 18 18 17 17 17 17 17 17 17 17 17 17 17 17
30 29 30 31 31 31 30 30 29 29 27 27 25 25 24 24 24 23 23 22 22 21 20 20 20 19 19 19 19 19 18 18 18 18 18 17 17 17 17 17 17 17 17 17 17 17 17 17 17
31 30 31 31 31 30 30 30 29 29 27 27 25 24 24 24 23 23 22 22 21 21 20 20 20 19 19 18 18 18 18 18 18 17 17 17 17 17 16 16 16 16 16 16 16 16 16 16 16
31 31 31 31 30 30 30 29 29 28 27 26 25 24 24 23 22 22 21 21 21 20 20 19 19 19 19 18 18 18 17 17 17 17 17 17 17 16 16 16 16 16 16 16 16 16 16 16 16
31 31 31 31 30 30 29 29 28 27 26 25 25 24 23 23 22 21 21 20 20 19 19 19 19 19 18 18 18 17 17 17 17 17 17 16 16 16 16 16 16 16 16 16 16 16 16 16 16
31 31 31 30 30 29 29 29 28 27 26 25 24 24 23 22 22 21 20 20 19 19 19 19 18 18 18 18 17 17 17 17 17 17 16 16 16 16 16 16 16 16 16 16 16 16 15 15 16
31 30 30 31 30 30 29 28 27 26 26 25 24 23 22 22 21 21 20 19 19 19 18 18 18 18 18 17 17 17 17 17 17 16 16 16 16 16 16 16 16 16 16 16 16 15 15 15 15
31 30 29 30 30 30 29 26 26 25 26 25 24 23 22 21 21 20 20 19 18 18 18 18 17 17 17 17 17 17 17 16 16 16 16 16 16 16 15 15 15 15 15 15 15 15 15 15 15
29 28 28 29 30 30 29 26 26 25 25 25 24 23 22 21 20 19 19 19 18 18 18 17 17 17 17 17 16 16 16 16 16 16 16 16 15 15 15 15 15 15 15 15 15 15 15 15 15
28 28 28 29 29 29 28 27 26 26 25 24 24 23 22 21 20 19 19 18 18 18 17 17 17 17 16 16 16 16 16 16 16 15 15 15 15 15 15 15 15 15 15 15 15 15 14 14 14
29 29 29 29 29 28 28 27 26 26 25 24 23 23 22 21 20 19 19 18 18 17 17 17 16 16 16 16 15 15 15 15 15 15 15 15 15 15 15 14 14 14 14 14 14 14 14 14 14
29 28 28 29 29 28 28 27 26 25 25 24 23 22 21 21 20 19 19 18 18 17 17 16 16 16 15 15 15 15 15 15 15 15 15 15 14 14 14 14 14 14 14 14 14 14 14 14 14
29 28 28 28 28 28 28 26 25 24 24 23 22 22 21 20 20 19 19 18 18 17 17 16 16 15 15 15 15 15 15 15 15 15 15 14 14 14 14 14 14 14 14 14 14 13 13 13 13
28 29 28 28 28 27 27 25 24 24 23 23 22 22 21 20 20 19 19 18 18 17 17 16 15 15 15 14 14 14 14 14 14 14 14 14 14 14 14 14 14 14 13 13 13 13 13 13 13
28 29 28 28 28 27 27 25 23 23 22 22 22 21 21 20 19 19 18 18 17 17 16 16 15 15 14 14 14 14 14 14 14 14 14 14 14 14 14 14 13 13 13 13 13 13 13 13 13
29 29 28 29 27 25 26 25 22 22 22 22 22 21 20 20 19 19 18 17 17 17 16 16 15 15 14 14 14 14 14 14 14 14 14 14 14 14 14 14 13 13 13 13 13 13 13 13 13
28 27 26 25 25 24 25 24 21 22 23 22 21 21 20 20 19 18 18 17 16 16 16 15 15 14 14 14 14 14 13 14 14 14 13 14 13 13 13 13 13 13 13 13 13 13 13 13 13
27 26 24 23 24 24 25 23 21 23 22 22 21 20 20 19 19 18 17 17 16 16 15 15 14 14 14 14 13 13 13 13 13 13 13 13 13 13 13 13 13 13 13 12 12 12 12 13 12
27 26 26 24 24 24 24 22 21 22 22 22 21 20 19 19 18 18 17 17 16 16 15 15 14 14 14 13 13 13 13 13 13 13 13 13 13 13 13 13 13 12 12 12 12 12 12 12 12
28 27 25 24 23 23 23 22 20 20 21 21 21 20 19 18 18 17 17 17 16 16 15 15 14 14 14 13 13 13 13 13 13 13 13 13 13 13 13 12 12 12 12 12 12 12 12 12 12
26 25 25 24 24 22 21 20 21 20 21 20 20 19 19 18 18 17 17 17 16 16 15 15 14 14 14 13 13 13 13 13 13 13 13 12 13 12 12 12 12 12 12 12 12 12 12 12 12
26 25 24 23 22 23 22 20 22 21 21 20 20 19 18 18 17 17 17 16 16 15 15 15 14 14 14 13 13 13 13 13 12 12 12 12 12 12 12 12 12 12 12 12 12 12 12 12 12
Wind_Speed
9 12 10 7 6 5 3 3 4 8 9 10 9 9 12 11 8 7 6 9 17 19 17 16 15 14 13 12 11 10 9 9 8 8 7 6 6 6 6 6 6 6 5 5 5 5 4 4 4
10 12 9 6 6 3 1 2 5 7 7 6 8 9 10 10 10 9 8 8 17 18 16 15 16 14 13 12 11 10 9 9 8 8 7 7 6 6 6 6 6 6 6 6 5 5 5 5 4
12 14 7 6 4 3 2 5 6 8 8 6 6 8 8 7 9 8 8 8 15 17 16 16 16 14 13 12 11 10 9 8 7 7 7 6 6 6 6 6 6 6 6 6 6 6 6 6 5
8 8 6 6 4 2 3 5 4 5 6 7 6 7 8 8 7 9 10 9 13 15 16 17 16 14 13 12 11 10 9 8 7 7 6 5 5 6 6 6 6 6 6 6 6 6 6 6 6
10 7 9 6 4 2 3 4 3 4 5 7 8 7 9 9 10 9 9 8 11 14 16 16 15 14 13 12 11 10 9 8 7 6 6 6 5 5 6 6 6 6 6 6 7 7 7 7 7
7 8 8 4 3 2 3 2 3 3 5 7 6 6 7 7 9 6 8 7 10 13 14 15 15 14 12 12 11 9 9 8 7 7 6 6 6 6 6 6 6 7 7 7 7 7 7 8 8
10 10 10 7 4 0 3 3 3 2 5 5 5 6 6 8 7 6 8 8 9 11 13 11 12 12 11 11 10 9 9 9 8 7 7 6 6 7 7 7 8 8 7 7 8 8 9 9 9
10 9 11 7 3 1 3 3 3 4 5 6 6 5 4 5 6 7 7 7 8 9 11 11 10 10 9 9 11 10 10 9 9 8 7 7 8 8 8 8 8 8 8 8 9 10 10 11 12
12 10 9 5 3 2 3 3 3 6 6 8 7 6 6 6 6 7 7 6 6 7 8 8 9 8 8 9 10 11 10 9 8 7 7 6 6 7 8 8 9 9 9 10 10 11 12 13 14
9 8 7 5 5 3 3 3 1 4 5 6 7 7 7 7 6 6 5 5 6 6 5 6 6 6 7 6 7 7 7 7 6 4 4 6 6 7 7 8 10 10 10 11 12 13 12 12 10
9 8 6 4 4 4 3 3 4 2 2 4 6 7 7 7 6 5 5 5 5 5 4 4 4 4 3 3 4 3 3 5 5 4 5 5 4 4 4 3 5 7 9 8 8 10 8 8 6
9 7 6 4 2 3 3 2 3 5 4 5 6 6 6 7 6 5 5 4 4 5 5 4 3 3 2 2 2 2 2 3 3 3 3 2 2 2 2 1 2 3 4 4 5 4 6 6 6
10 7 5 4 2 1 1 1 2 3 4 6 6 6 6 5 5 5 5 6 6 5 5 3 3 3 2 1 0 1 2 3 3 2 3 2 2 2 2 2 2 3 3 3 4 4 4 4 5
8 7 6 6 3 3 3 2 2 2 5 6 6 6 7 6 6 6 6 6 5 5 4 2 2 3 2 1 0 1 1 1 0 1 2 2 1 2 2 3 2 3 2 2 3 4 4 4 3
9 9 8 7 6 5 3 1 2 2 4 6 6 6 7 7 7 6 6 6 5 5 3 1 2 2 2 1 1 1 1 0 0 0 1 1 1 2 2 2 2 2 3 2 2 3 3 3 4
12 9 8 6 6 6 5 3 4 3 3 5 6 7 7 7 7 6 6 6 5 5 4 2 2 2 2 0 1 1 1 0 0 1 1 0 2 2 2 2 2 3 3 2 2 1 2 3 3
8 8 7 5 5 4 3 2 5 4 3 5 6 7 7 7 7 7 6 6 5 5 4 3 3 3 2 2 1 2 1 1 0 1 1 1 2 2 2 2 2 3 2 2 2 1 2 3 4
8 9 9 6 3 3 2 3 6 7 6 5 5 5 5 6 5 5 5 5 5 4 3 3 2 3 2 2 2 2 2 2 1 0 0 1 1 2 2 2 2 3 2 2 2 2 2 3 3
10 10 9 5 0 3 3 3 6 6 5 5 5 5 5 5 5 5 4 4 4 3 2 2 2 2 1 1 2 2 3 2 2 1 0 1 2 2 2 2 2 2 2 2 2 2 3 3 2
9 10 9 8 5 6 4 3 4 5 4 4 5 5 5 4 4 4 3 3 3 3 2 2 3 2 2 2 2 2 3 3 2 2 1 1 2 2 2 2 2 2 2 2 2 2 3 3 2
8 9 9 9 8 9 6 4 4 5 4 4 3 4 4 2 3 3 3 3 4 3 3 3 2 1 2 3 2 3 3 3 2 2 1 2 2 2 2 2 2 2 2 2 3 3 3 3 3
9 9 10 11 11 9 6 5 5 6 5 3 2 2 2 3 3 3 4 4 4 4 4 3 2 1 1 2 3 4 3 4 4 3 1 1 2 2 1 2 2 3 2 2 3 2 4 4 4
10 11 12 14 13 12 8 4 3 6 3 2 2 2 2 2 2 3 4 4 5 5 4 3 2 1 1 2 2 3 3 4 3 3 2 2 2 2 2 2 2 2 2 3 3 3 4 3 3
9 12 13 12 8 8 5 3 2 3 1 3 2 3 4 4 3 4 5 5 5 5 4 3 3 2 2 2 3 3 4 4 4 4 4 2 2 1 1 1 1 2 3 3 3 3 3 3 4
9 9 7 6 4 4 4 1 5 5 5 6 5 4 4 5 5 5 5 5 4 5 5 4 3 3 3 3 3 3 4 5 4 4 3 3 2 1 2 2 1 2 3 3 3 3 3 3 4
8 7 6 7 7 7 5 3 6 7 8 7 7 6 6 6 5 4 4 4 5 5 5 4 3 4 3 3 3 3 4 4 3 3 4 3 2 2 2 2 2 3 3 4 3 3 4 3 4
7 7 7 7 10 8 2 4 6 7 6 6 7 7 6 6 5 5 4 4 4 3 3 4 3 4 4 4 3 3 3 3 3 4 4 3 2 2 2 2 2 3 3 4 4 3 4 4 4
6 7 6 5 5 5 3 2 3 4 5 6 6 6 6 6 6 6 5 3 2 2 2 2 3 4 4 3 3 3 3 3 2 3 4 3 3 3 3 3 3 3 4 4 4 4 4 4 4
5 5 5 6 6 5 5 3 3 3 5 6 6 6 7 6 6 5 4 4 2 3 3 2 3 3 3 3 3 3 3 3 3 3 3 3 3 4 4 3 4 4 3 3 4 4 4 4 4
3 4 5 5 6 6 5 2 4 5 5 6 7 7 7 7 7 6 5 5 4 4 4 4 4 4 3 3 3 3 3 3 3 3 3 3 3 4 4 4 4 5 4 3 3 4 4 4 4
Wind_Direction
249 248 240 248 248 238 299 326 52 53 48 47 38 47 56 48 49 93 99 93 110 119 126 130 130 132 133 134 135 135 136 137 139 143 148 149 151 153 157 160 163 167 172 177 180 186 192 196 202
258 254 247 245 255 260 295 29 57 69 63 52 56 60 68 62 67 93 91 101 116 122 129 131 134 135 137 138 139 139 140 141 144 146 149 156 160 165 169 172 178 181 186 191 196 203 209 215 218
260 255 256 249 252 274 354 62 66 77 75 56 65 64 61 63 73 92 109 117 116 122 127 130 136 136 138 140 142 143 144 147 150 152 153 160 170 176 180 185 190 194 198 202 207 214 221 225 229
259 244 238 256 286 309 23 32 44 69 66 65 58 70 71 57 75 100 118 121 118 123 126 133 137 138 140 144 146 148 150 152 154 157 160 165 175 184 190 195 200 205 210 215 217 222 229 232 234
251 255 247 253 285 310 60 59 15 62 66 67 60 70 76 70 82 100 116 119 118 120 124 134 139 140 143 146 149 153 155 156 158 163 170 179 187 193 200 204 211 214 217 222 225 230 234 234 240
260 263 267 264 267 286 61 71 49 30 64 62 69 84 89 91 90 93 107 110 111 118 123 132 141 143 147 151 152 154 157 161 164 169 179 189 195 201 206 211 219 224 226 228 233 237 240 240 243
260 284 284 277 259 152 71 54 57 21 64 45 51 78 94 88 93 94 103 103 103 116 123 132 141 145 152 155 155 159 165 169 173 179 187 196 207 212 214 215 223 227 230 233 238 241 248 250 245
265 280 280 280 291 36 76 63 52 52 54 47 39 67 88 102 114 105 100 101 108 121 126 138 144 148 156 155 160 172 177 179 182 191 199 209 219 221 221 220 222 228 233 235 238 240 244 249 249
259 269 288 316 338 21 55 55 59 73 62 57 54 75 112 124 115 106 102 106 108 110 121 134 143 152 163 165 164 179 183 180 185 199 207 212 220 226 219 222 215 222 232 236 239 241 244 249 249
246 266 299 325 342 1 10 35 354 83 57 64 69 84 110 114 111 113 117 114 105 107 118 128 138 156 166 165 158 176 179 172 188 193 201 218 228 236 231 210 214 221 232 240 241 244 246 247 248
258 271 299 319 342 329 354 16 30 78 73 64 73 91 103 94 89 99 100 95 102 102 98 107 116 134 154 139 147 167 170 161 188 204 207 225 240 246 239 210 214 225 232 237 243 239 240 241 245
272 283 288 297 304 303 323 345 36 53 50 74 85 96 94 99 98 89 90 96 80 80 77 68 93 104 107 110 147 165 169 157 193 206 208 224 236 253 256 248 227 235 236 239 241 237 241 244 248
277 272 280 285 284 257 257 72 73 78 93 100 98 95 91 87 99 101 84 77 71 61 56 50 59 85 79 81 206 169 202 189 191 177 186 241 228 256 261 249 232 245 240 236 248 250 254 251 251
292 285 270 251 228 220 209 152 144 150 122 105 99 95 90 84 75 75 77 69 70 68 54 29 77 86 76 71 11 242 235 219 169 139 172 217 253 249 258 254 243 259 272 260 253 257 256 253 257
274 271 264 246 222 204 183 188 129 112 114 113 112 100 91 82 76 69 73 71 71 72 63 348 114 94 101 108 261 250 277 93 322 349 123 179 273 281 262 265 267 284 286 285 268 264 256 259 263
267 256 266 262 238 209 210 188 126 157 150 124 114 101 92 79 72 65 69 73 71 63 59 30 32 51 52 13 277 287 321 344 12 45 49 41 289 298 290 286 291 294 292 281 267 281 294 282 281
286 282 272 259 240 237 222 169 153 165 140 120 111 106 101 89 69 60 58 72 72 70 61 41 48 32 13 338 301 297 295 306 319 56 44 328 294 301 304 286 284 293 293 291 297 311 287 288 286
313 299 284 272 231 260 254 172 160 158 146 134 118 111 105 97 85 75 55 62 71 74 66 50 68 52 358 346 318 308 315 310 314 307 351 329 290 293 291 265 287 291 279 281 295 297 278 272 276
306 300 302 297 268 254 226 190 171 160 153 142 132 120 106 99 98 87 66 51 58 69 71 65 58 59 2 355 320 310 302 302 296 267 292 312 304 302 280 292 284 284 282 292 296 296 295 287 282
300 306 314 320 327 290 257 203 177 142 147 122 116 106 88 83 72 64 62 55 50 53 55 68 55 36 0 339 298 286 297 286 273 285 255 257 268 281 277 280 290 292 291 295 286 283 279 285 297
306 303 306 308 301 276 259 240 168 151 120 106 90 90 90 67 44 15 3 36 35 38 41 32 43 28 359 331 320 326 303 289 290 291 258 258 264 262 280 272 285 292 281 284 281 276 277 285 287
308 315 311 296 287 276 263 265 166 143 132 120 96 64 60 35 13 358 350 12 27 27 31 42 33 22 345 324 329 314 305 306 309 310 301 296 271 264 260 279 282 280 286 285 286 294 278 274 283
310 312 297 285 277 275 265 269 133 144 145 112 73 40 22 24 0 355 1 19 25 23 23 29 28 21 342 311 308 300 311 307 311 316 314 286 274 253 228 220 255 273 277 281 286 293 283 272 277
315 311 299 283 270 267 292 295 107 126 105 74 52 20 8 355 14 25 16 26 25 15 10 13 12 10 347 318 313 306 310 305 304 305 304 298 285 275 289 265 268 280 283 283 282 280 283 284 279
328 325 319 314 293 282 309 1 85 72 68 70 59 33 15 11 29 30 20 16 7 1 1 2 4 349 334 319 318 313 309 299 295 296 302 300 296 300 305 316 298 289 289 280 276 276 275 277 277
328 329 320 311 310 308 311 76 93 75 66 54 52 33 18 16 23 21 15 12 6 360 359 353 357 342 331 324 316 304 311 306 311 315 307 302 304 309 316 307 286 279 278 288 281 269 268 270 268
325 322 320 299 293 302 0 93 91 51 48 48 39 25 16 10 10 8 10 15 1 350 359 347 346 343 338 337 322 307 320 315 323 316 303 305 304 296 318 300 292 294 294 293 287 277 277 276 268
329 336 333 320 311 311 320 23 42 16 18 25 21 20 12 7 9 4 357 1 357 352 11 356 348 339 336 343 326 331 323 308 311 310 317 312 314 323 307 298 295 289 282 284 283 282 275 276 272
345 345 336 322 319 317 321 7 49 28 36 21 16 21 12 3 359 0 353 352 8 353 356 348 334 328 338 341 344 330 323 323 316 318 323 323 318 310 300 307 303 295 291 295 293 290 281 277 279
13 344 337 324 322 317 317 35 61 50 45 26 22 24 16 3 355 0 4 7 12 0 351 347 343 338 344 349 347 347 344 335 323 325 319 310 310 311 311 308 305 306 312 309 303 303 301 295 290
Height
1486 1486 1487 1490 1486 1482 1478 1465 1457 1458 1460 1463 1465 1466 1469 1474 1478 1489 1489 1488 1487 1487 1490 1492 1494 1496 1498 1500 1503 1505 1506 1508 1510 1511 1513 1514 1516 1517 1518 1519 1521 1522 1523 1524 1525 1526 1527 1527 1528
1486 1487 1490 1487 1482 1485 1477 1462 1460 1460 1463 1465 1467 1469 1472 1477 1481 1485 1487 1489 1488 1489 1490 1493 1495 1497 1499 1501 1503 1505 1507 1508 1510 1511 1513 1514 1516 1517 1518 1519 1520 1521 1522 1523 1524 1525 1525 1526 1527
1486 1487 1488 1479 1476 1478 1471 1460 1459 1461 1464 1466 1469 1472 1476 1481 1484 1486 1488 1490 1489 1489 1491 1493 1495 1497 1499 1501 1503 1505 1507 1509 1510 1511 1512 1514 1515 1516 1517 1518 1519 1520 1521 1522 1523 1523 1524 1525 1526
1487 1487 1484 1476 1474 1465 1462 1461 1461 1462 1464 1467 1469 1474 1480 1484 1485 1487 1488 1490 1490 1490 1491 1494 1496 1498 1500 1502 1503 1505 1507 1508 1510 1511 1512 1513 1514 1515 1516 1517 1518 1519 1520 1521 1521 1522 1523 1523 1524
1488 1484 1478 1475 1470 1461 1459 1462 1463 1463 1465 1469 1472 1477 1483 1486 1487 1487 1489 1490 1491 1491 1492 1494 1496 1498 1500 1502 1503 1505 1507 1508 1510 1511 1512 1513 1514 1514 1515 1516 1517 1517 1518 1519 1520 1520 1521 1522 1522
1487 1478 1477 1476 1470 1461 1460 1463 1464 1466 1467 1471 1474 1478 1485 1486 1487 1488 1490 1491 1492 1492 1493 1495 1497 1498 1500 1501 1503 1505 1506 1507 1509 1510 1511 1512 1512 1513 1514 1514 1515 1516 1516 1517 1517 1518 1519 1519 1520
1486 1478 1476 1470 1467 1464 1462 1464 1466 1468 1469 1473 1475 1479 1485 1488 1488 1489 1490 1491 1492 1493 1493 1495 1497 1499 1500 1501 1503 1504 1505 1506 1507 1508 1509 1510 1511 1512 1512 1513 1513 1514 1514 1515 1515 1516 1516 1517 1517
1481 1477 1473 1467 1466 1466 1464 1466 1467 1469 1472 1475 1477 1480 1486 1489 1489 1489 1490 1492 1493 1494 1494 1495 1497 1498 1500 1501 1502 1503 1504 1505 1506 1507 1508 1508 1509 1510 1510 1511 1511 1511 1512 1512 1512 1513 1513 1514 1515
1479 1478 1475 1467 1466 1465 1464 1466 1468 1471 1474 1477 1479 1482 1486 1487 1488 1490 1491 1493 1494 1495 1495 1495 1496 1498 1499 1500 1501 1502 1504 1504 1505 1506 1506 1507 1507 1508 1509 1509 1509 1509 1509 1509 1510 1510 1510 1511 1512
1474 1475 1471 1464 1463 1464 1465 1467 1469 1472 1476 1478 1481 1483 1485 1487 1488 1489 1491 1492 1493 1494 1494 1495 1496 1498 1499 1500 1500 1501 1502 1503 1504 1505 1505 1505 1506 1506 1507 1507 1507 1507 1507 1507 1507 1507 1507 1508 1508
1467 1467 1465 1464 1465 1465 1466 1468 1470 1472 1476 1480 1482 1484 1486 1487 1488 1490 1491 1492 1493 1493 1494 1495 1495 1497 1499 1500 1499 1500 1501 1501 1502 1503 1503 1503 1504 1504 1504 1505 1504 1504 1504 1504 1504 1504 1504 1505 1505
1465 1464 1464 1464 1465 1466 1468 1469 1472 1475 1479 1481 1483 1484 1486 1487 1488 1490 1491 1492 1492 1493 1494 1495 1495 1496 1498 1498 1499 1499 1500 1500 1500 1500 1501 1501 1501 1501 1502 1502 1502 1502 1502 1502 1502 1502 1502 1502 1502
1464 1463 1463 1464 1465 1467 1468 1470 1473 1477 1480 1482 1483 1485 1486 1487 1488 1490 1491 1492 1492 1493 1494 1495 1495 1495 1496 1497 1497 1498 1498 1498 1499 1499 1498 1499 1499 1499 1500 1500 1499 1499 1499 1499 1499 1499 1499 1499 1499
1463 1463 1463 1463 1464 1466 1467 1470 1474 1477 1480 1482 1484 1485 1486 1488 1489 1490 1491 1492 1492 1493 1493 1494 1494 1494 1495 1495 1495 1496 1497 1497 1497 1497 1496 1497 1497 1497 1497 1497 1497 1497 1497 1497 1496 1496 1496 1496 1496
1464 1463 1462 1460 1461 1463 1466 1472 1474 1477 1479 1481 1484 1486 1487 1489 1490 1491 1492 1492 1492 1491 1492 1493 1494 1493 1493 1494 1494 1495 1495 1495 1495 1495 1494 1494 1495 1494 1494 1494 1494 1494 1494 1494 1493 1493 1494 1493 1493
1461 1464 1469 1460 1459 1460 1467 1479 1476 1478 1479 1481 1484 1486 1489 1490 1491 1492 1492 1492 1492 1492 1491 1492 1492 1492 1493 1493 1493 1493 1493 1493 1493 1493 1492 1492 1492 1492 1492 1491 1491 1491 1491 1491 1490 1490 1490 1489 1489
1465 1472 1470 1464 1458 1458 1464 1474 1474 1477 1478 1481 1484 1487 1489 1491 1492 1493 1493 1493 1492 1492 1491 1491 1490 1491 1491 1492 1492 1492 1491 1491 1491 1491 1490 1490 1489 1489 1489 1489 1489 1488 1488 1488 1487 1487 1487 1486 1486
1476 1473 1467 1464 1459 1460 1464 1470 1472 1474 1478 1481 1484 1487 1489 1491 1493 1494 1494 1493 1493 1492 1491 1491 1490 1490 1490 1491 1490 1490 1489 1489 1489 1488 1488 1488 1487 1487 1487 1487 1486 1486 1486 1485 1484 1484 1484 1484 1484
1465 1467 1466 1462 1458 1462 1465 1469 1470 1473 1477 1480 1483 1486 1489 1491 1493 1493 1494 1494 1493 1492 1491 1491 1491 1490 1489 1489 1488 1487 1487 1487 1487 1487 1486 1486 1485 1485 1484 1484 1484 1484 1483 1483 1482 1482 1482 1482 1482
1465 1468 1467 1461 1458 1461 1464 1467 1467 1472 1477 1481 1484 1486 1490 1491 1492 1493 1493 1493 1492 1492 1491 1490 1490 1489 1489 1488 1487 1487 1486 1486 1485 1485 1484 1484 1483 1483 1483 1482 1482 1481 1481 1480 1480 1480 1480 1480 1480
1466 1468 1467 1466 1462 1458 1462 1471 1472 1474 1478 1482 1485 1486 1490 1491 1492 1494 1494 1493 1492 1491 1491 1490 1489 1488 1487 1487 1486 1485 1484 1484 1483 1483 1482 1482 1481 1481 1481 1480 1480 1480 1479 1478 1478 1478 1478 1477 1478
1471 1462 1462 1463 1465 1467 1464 1480 1477 1476 1481 1483 1485 1487 1489 1491 1492 1494 1493 1493 1492 1491 1490 1489 1488 1487 1486 1485 1484 1483 1482 1482 1482 1481 1480 1480 1479 1479 1478 1478 1478 1478 1477 1476 1476 1476 1475 1475 1475
1466 1459 1459 1459 1461 1465 1463 1475 1483 1480 1483 1483 1485 1487 1489 1490 1491 1492 1491 1491 1491 1491 1489 1488 1487 1485 1484 1484 1483 1481 1481 1480 1480 1479 1479 1478 1477 1477 1477 1476 1476 1475 1475 1474 1474 1473 1473 1473 1472
1461 1461 1457 1453 1459 1477 1471 1478 1489 1484 1484 1483 1485 1487 1488 1489 1489 1490 1490 1490 1490 1490 1489 1487 1486 1484 1483 1482 1481 1480 1479 1479 1478 1477 1477 1476 1476 1475 1475 1475 1474 1474 1473 1472 1472 1471 1470 1470 1470
1464 1472 1480 1481 1481 1482 1470 1477 1492 1483 1481 1483 1486 1487 1488 1488 1488 1488 1489 1489 1489 1489 1488 1487 1484 1482 1481 1479 1479 1478 1477 1477 1476 1475 1475 1475 1474 1474 1473 1473 1472 1472 1471 1470 1469 1469 1468 1467 1467
1469 1473 1491 1501 1493 1483 1472 1484 1490 1483 1484 1486 1487 1488 1489 1489 1489 1489 1489 1489 1488 1488 1487 1486 1483 1481 1479 1477 1477 1476 1476 1475 1474 1473 1473 1473 1473 1472 1472 1471 1470 1470 1469 1468 1467 1466 1465 1464 1464
1472 1474 1471 1482 1482 1484 1483 1487 1487 1485 1486 1487 1488 1489 1490 1490 1490 1490 1489 1489 1488 1487 1486 1485 1483 1481 1478 1477 1476 1475 1474 1473 1472 1472 1472 1471 1471 1471 1470 1469 1468 1467 1466 1466 1465 1464 1463 1462 1461
1467 1470 1475 1484 1495 1498 1492 1492 1495 1492 1489 1487 1488 1489 1490 1490 1490 1489 1489 1488 1487 1487 1486 1485 1482 1480 1478 1477 1475 1474 1473 1472 1471 1470 1470 1470 1469 1469 1468 1467 1466 1465 1464 1463 1462 1461 1460 1459 1458
1473 1477 1479 1481 1483 1497 1504 1504 1491 1491 1489 1489 1490 1490 1491 1490 1490 1489 1488 1487 1486 1486 1485 1483 1481 1479 1478 1476 1474 1473 1471 1470 1470 1469 1468 1468 1468 1467 1466 1466 1465 1464 1462 1461 1460 1459 1458 1456 1455
1472 1477 1481 1493 1494 1489 1496 1505 1488 1490 1490 1490 1491 1492 1492 1491 1491 1489 1488 1486 1486 1485 1484 1483 1481 1479 1477 1476 1473 1472 1471 1470 1469 1468 1467 1467 1466 1466 1465 1464 1463 1462 1461 1459 1458 1457 1455 1454 1453